Location: Pian di Sc�
(43.6333°N, 11.5500°E)
Time: 18:11:46
(UTC+00:00)

Cosmos 2263 Rocket - Pass Details

Date: 07 August 2020
Orbit: 824 x 848 km, 71.0° (Epoch: 20 September)

Event Time Altitude Azimuth Distance (km) Brightness Sun altitude
Exits shadow 02:24:10 16° 182° (S) 2,026 3.8 -16.7°
Maximum altitude 02:28:28 55° 109° (ESE) 987 2.7 -16.1°
Drops below altitude 10° 02:33:53 10° 33° (NNE) 2,431 5.8 -15.4°
Sets 02:36:22 0° 29° (NNE) 3,368 6.8 -15.1°
